Time,TemperatureF,DewpointF,PressureIn,WindDirection,WindDirectionDegrees,WindSpeedMPH,WindSpeedGustMPH,Humidity,HourlyPrecipIn,Conditions,Clouds,dailyrainin,SoftwareType,DateUTC
2013-07-05 00:02:00,62.3,52.0,29.73,South,183,0.0,-999.0,68,-99.99,,,0.00,weatherlink.com 1.10,2013-07-05 07:02:00,
2013-07-05 00:17:00,61.3,51.0,29.73,South,183,0.0,-999.0,70,-99.99,,,0.00,weatherlink.com 1.10,2013-07-05 07:17:00,
2013-07-05 00:32:00,60.9,51.0,29.73,South,184,0.0,-999.0,70,-99.99,,,0.00,weatherlink.com 1.10,2013-07-05 07:32:00,
2013-07-05 00:47:00,61.2,52.0,29.73,SSW,195,0.0,-999.0,71,-99.99,,,0.00,weatherlink.com 1.10,2013-07-05 07:47:00,
2013-07-05 01:02:00,61.0,51.0,29.73,West,259,3.0,-999.0,69,-99.99,,,0.00,weatherlink.com 1.10,2013-07-05 08:02:00,
2013-07-05 01:17:00,60.7,51.0,29.73,SSW,202,0.0,-999.0,70,-99.99,,,0.00,weatherlink.com 1.10,2013-07-05 08:17:00,
2013-07-05 01:32:00,60.2,51.0,29.73,WSW,248,3.0,-999.0,72,-99.99,,,0.00,weatherlink.com 1.10,2013-07-05 08:32:00,
2013-07-05 01:47:00,59.8,52.0,29.73,SSE,167,1.0,-999.0,74,-99.99,,,0.00,weatherlink.com 1.10,2013-07-05 08:47:00,
2013-07-05 02:02:00,59.0,51.0,29.73,WSW,238,1.0,-999.0,75,-99.99,,,0.00,weatherlink.com 1.10,2013-07-05 09:02:00,
2013-07-05 02:17:00,58.6,51.0,29.73,South,184,1.0,-999.0,77,-99.99,,,0.00,weatherlink.com 1.10,2013-07-05 09:17:00,
2013-07-05 02:32:00,58.3,51.0,29.73,SSW,194,0.0,-999.0,77,-99.99,,,0.00,weatherlink.com 1.10,2013-07-05 09:32:00,
2013-07-05 02:47:00,58.0,51.0,29.73,South,190,1.0,-999.0,78,-99.99,,,0.00,weatherlink.com 1.10,2013-07-05 09:47:00,
2013-07-05 03:02:00,57.8,51.0,29.72,ESE,118,2.0,-999.0,78,-99.99,,,0.00,weatherlink.com 1.10,2013-07-05 10:02:00,
2013-07-05 03:17:00,57.6,51.0,29.73,ESE,115,4.0,-999.0,78,-99.99,,,0.00,weatherlink.com 1.10,2013-07-05 10:17:00,
2013-07-05 03:32:00,57.3,51.0,29.72,West,279,0.0,-999.0,79,-99.99,,,0.00,weatherlink.com 1.10,2013-07-05 10:32:00,
2013-07-05 03:47:00,57.0,51.0,29.73,SE,126,1.0,-999.0,80,-99.99,,,0.00,weatherlink.com 1.10,2013-07-05 10:47:00,
2013-07-05 04:02:00,56.9,51.0,29.72,ESE,123,1.0,-999.0,81,-99.99,,,0.00,weatherlink.com 1.10,2013-07-05 11:02:00,
2013-07-05 04:17:00,56.7,51.0,29.72,ESE,120,0.0,-999.0,82,-99.99,,,0.00,weatherlink.com 1.10,2013-07-05 11:17:00,
2013-07-05 04:32:00,56.5,51.0,29.72,East,90,3.0,-999.0,83,-99.99,,,0.00,weatherlink.com 1.10,2013-07-05 11:32:00,
2013-07-05 04:47:00,56.2,52.0,29.73,SSE,151,3.0,-999.0,84,-99.99,,,0.00,weatherlink.com 1.10,2013-07-05 11:47:00,
2013-07-05 05:02:00,56.2,52.0,29.73,East,96,0.0,-999.0,85,-99.99,,,0.00,weatherlink.com 1.10,2013-07-05 12:02:00,
2013-07-05 05:17:00,56.0,52.0,29.72,East,101,2.0,-999.0,85,-99.99,,,0.00,weatherlink.com 1.10,2013-07-05 12:17:00,
2013-07-05 05:32:00,56.0,52.0,29.73,ENE,74,5.0,-999.0,86,-99.99,,,0.00,weatherlink.com 1.10,2013-07-05 12:32:00,
2013-07-05 05:47:00,55.9,52.0,29.73,SSE,160,0.0,-999.0,86,-99.99,,,0.00,weatherlink.com 1.10,2013-07-05 12:47:00,
2013-07-05 06:02:00,56.2,52.0,29.74,South,180,6.0,-999.0,86,-99.99,,,0.00,weatherlink.com 1.10,2013-07-05 13:02:00,
2013-07-05 06:17:00,56.3,52.0,29.74,East,86,0.0,-999.0,85,-99.99,,,0.00,weatherlink.com 1.10,2013-07-05 13:17:00,
2013-07-05 06:32:00,56.2,52.0,29.75,WSW,255,2.0,-999.0,85,-99.99,,,0.00,weatherlink.com 1.10,2013-07-05 13:32:00,
2013-07-05 06:47:00,56.2,52.0,29.75,West,271,3.0,-999.0,85,-99.99,,,0.00,weatherlink.com 1.10,2013-07-05 13:47:00,
2013-07-05 07:02:00,56.2,52.0,29.76,SW,233,0.0,-999.0,84,-99.99,,,0.00,weatherlink.com 1.10,2013-07-05 14:02:00,
2013-07-05 07:32:00,56.0,52.0,29.76,WSW,254,3.0,-999.0,85,-99.99,,,0.00,weatherlink.com 1.10,2013-07-05 14:32:00,
2013-07-05 07:47:00,56.2,52.0,29.77,SSE,152,2.0,-999.0,84,-99.99,,,0.00,weatherlink.com 1.10,2013-07-05 14:47:00,
2013-07-05 08:02:00,56.2,52.0,29.77,West,273,0.0,-999.0,84,-99.99,,,0.00,weatherlink.com 1.10,2013-07-05 15:02:00,
2013-07-05 08:17:00,56.3,51.0,29.78,NW,313,1.0,-999.0,83,-99.99,,,0.00,weatherlink.com 1.10,2013-07-05 15:17:00,
2013-07-05 08:32:00,56.5,51.0,29.79,ENE,67,2.0,-999.0,83,-99.99,,,0.00,weatherlink.com 1.10,2013-07-05 15:32:00,
2013-07-05 08:47:00,56.5,51.0,29.79,East,88,0.0,-999.0,83,-99.99,,,0.00,weatherlink.com 1.10,2013-07-05 15:47:00,
2013-07-05 09:02:00,56.6,52.0,29.79,SW,230,5.0,-999.0,83,-99.99,,,0.00,weatherlink.com 1.10,2013-07-05 16:02:00,
2013-07-05 09:17:00,56.7,51.0,29.79,SW,230,4.0,-999.0,82,-99.99,,,0.00,weatherlink.com 1.10,2013-07-05 16:17:00,
2013-07-05 09:32:00,56.9,52.0,29.79,SSW,194,3.0,-999.0,82,-99.99,,,0.00,weatherlink.com 1.10,2013-07-05 16:32:00,
2013-07-05 09:47:00,57.2,52.0,29.79,SW,218,0.0,-999.0,82,-99.99,,,0.00,weatherlink.com 1.10,2013-07-05 16:47:00,
2013-07-05 10:02:00,57.3,52.0,29.79,SE,145,3.0,-999.0,81,-99.99,,,0.00,weatherlink.com 1.10,2013-07-05 17:02:00,
2013-07-05 10:17:00,57.6,52.0,29.79,SSE,167,1.0,-999.0,80,-99.99,,,0.00,weatherlink.com 1.10,2013-07-05 17:17:00,
2013-07-05 10:32:00,58.3,52.0,29.79,SE,138,3.0,-999.0,79,-99.99,,,0.00,weatherlink.com 1.10,2013-07-05 17:32:00,
2013-07-05 10:47:00,58.9,52.0,29.79,SE,128,3.0,-999.0,78,-99.99,,,0.00,weatherlink.com 1.10,2013-07-05 17:47:00,
2013-07-05 11:02:00,59.3,52.0,29.79,SW,222,0.0,-999.0,76,-99.99,,,0.00,weatherlink.com 1.10,2013-07-05 18:02:00,
2013-07-05 11:17:00,60.5,52.0,29.79,ESE,117,3.0,-999.0,74,-99.99,,,0.00,weatherlink.com 1.10,2013-07-05 18:17:00,
2013-07-05 11:32:00,61.8,52.0,29.79,WSW,246,1.0,-999.0,71,-99.99,,,0.00,weatherlink.com 1.10,2013-07-05 18:32:00,
2013-07-05 11:48:00,63.1,52.0,29.79,SSW,213,4.0,-999.0,68,-99.99,,,0.00,weatherlink.com 1.10,2013-07-05 18:48:00,
2013-07-05 12:03:00,63.9,53.0,29.79,West,277,2.0,-999.0,67,-99.99,,,0.00,weatherlink.com 1.10,2013-07-05 19:03:00,
2013-07-05 12:18:00,65.3,53.0,29.79,West,266,2.0,-999.0,64,-99.99,,,0.00,weatherlink.com 1.10,2013-07-05 19:18:00,
2013-07-05 12:34:00,64.8,52.0,29.79,WSW,245,2.0,-999.0,64,-99.99,,,0.00,weatherlink.com 1.10,2013-07-05 19:34:00,
2013-07-05 12:48:00,65.6,53.0,29.79,ESE,111,2.0,-999.0,63,-99.99,,,0.00,weatherlink.com 1.10,2013-07-05 19:48:00,
2013-07-05 13:04:00,65.8,53.0,29.79,West,277,2.0,-999.0,63,-99.99,,,0.00,weatherlink.com 1.10,2013-07-05 20:04:00,
2013-07-05 13:18:00,66.6,53.0,29.79,ESE,103,4.0,-999.0,61,-99.99,,,0.00,weatherlink.com 1.10,2013-07-05 20:18:00,
2013-07-05 13:34:00,67.6,53.0,29.79,SW,227,4.0,-999.0,60,-99.99,,,0.00,weatherlink.com 1.10,2013-07-05 20:34:00,
2013-07-05 13:48:00,67.1,53.0,29.79,South,180,3.0,-999.0,60,-99.99,,,0.00,weatherlink.com 1.10,2013-07-05 20:48:00,
2013-07-05 14:05:00,67.3,52.0,29.78,NW,321,2.0,-999.0,59,-99.99,,,0.00,weatherlink.com 1.10,2013-07-05 21:05:00,
2013-07-05 14:18:00,67.6,53.0,29.78,WSW,250,0.0,-999.0,59,-99.99,,,0.00,weatherlink.com 1.10,2013-07-05 21:18:00,
2013-07-05 14:34:00,67.4,52.0,29.78,East,97,0.0,-999.0,59,-99.99,,,0.00,weatherlink.com 1.10,2013-07-05 21:34:00,
2013-07-05 14:48:00,67.4,52.0,29.77,WSW,244,2.0,-999.0,59,-99.99,,,0.00,weatherlink.com 1.10,2013-07-05 21:48:00,
2013-07-05 15:04:00,67.1,53.0,29.77,West,271,0.0,-999.0,60,-99.99,,,0.00,weatherlink.com 1.10,2013-07-05 22:04:00,
2013-07-05 15:18:00,67.9,53.0,29.77,SSW,205,1.0,-999.0,59,-99.99,,,0.00,weatherlink.com 1.10,2013-07-05 22:18:00,
2013-07-05 15:35:00,67.8,52.0,29.77,WSW,248,4.0,-999.0,58,-99.99,,,0.00,weatherlink.com 1.10,2013-07-05 22:35:00,
2013-07-05 15:49:00,67.6,52.0,29.77,SSE,150,3.0,-999.0,57,-99.99,,,0.00,weatherlink.com 1.10,2013-07-05 22:49:00,
2013-07-05 16:04:00,67.4,52.0,29.76,ESE,119,0.0,-999.0,59,-99.99,,,0.00,weatherlink.com 1.10,2013-07-05 23:04:00,
2013-07-05 16:19:00,68.4,52.0,29.76,SE,146,3.0,-999.0,57,-99.99,,,0.00,weatherlink.com 1.10,2013-07-05 23:19:00,
2013-07-05 16:34:00,68.9,53.0,29.76,WSW,256,1.0,-999.0,57,-99.99,,,0.00,weatherlink.com 1.10,2013-07-05 23:34:00,
2013-07-05 16:49:00,68.8,52.0,29.76,ENE,63,0.0,-999.0,56,-99.99,,,0.00,weatherlink.com 1.10,2013-07-05 23:49:00,
2013-07-05 17:04:00,68.8,52.0,29.75,WNW,302,0.0,-999.0,56,-99.99,,,0.00,weatherlink.com 1.10,2013-07-06 00:04:00,
2013-07-05 17:19:00,68.6,53.0,29.75,SSE,163,0.0,-999.0,58,-99.99,,,0.00,weatherlink.com 1.10,2013-07-06 00:19:00,
2013-07-05 17:34:00,68.4,52.0,29.75,SW,229,1.0,-999.0,57,-99.99,,,0.00,weatherlink.com 1.10,2013-07-06 00:34:00,
2013-07-05 17:49:00,67.8,53.0,29.75,SSW,209,0.0,-999.0,59,-99.99,,,0.00,weatherlink.com 1.10,2013-07-06 00:49:00,
2013-07-05 18:05:00,67.1,52.0,29.75,West,265,0.0,-999.0,59,-99.99,,,0.00,weatherlink.com 1.10,2013-07-06 01:05:00,
2013-07-05 18:19:00,66.0,52.0,29.75,West,272,4.0,-999.0,61,-99.99,,,0.00,weatherlink.com 1.10,2013-07-06 01:19:00,
2013-07-05 18:35:00,65.2,52.0,29.75,WSW,248,1.0,-999.0,63,-99.99,,,0.00,weatherlink.com 1.10,2013-07-06 01:35:00,
2013-07-05 18:50:00,64.8,52.0,29.75,SW,225,1.0,-999.0,64,-99.99,,,0.00,weatherlink.com 1.10,2013-07-06 01:50:00,
2013-07-05 19:04:00,63.7,52.0,29.75,North,351,1.0,-999.0,65,-99.99,,,0.00,weatherlink.com 1.10,2013-07-06 02:04:00,
2013-07-05 19:20:00,62.4,52.0,29.75,SSW,213,0.0,-999.0,68,-99.99,,,0.00,weatherlink.com 1.10,2013-07-06 02:20:00,
2013-07-05 19:35:00,61.3,51.0,29.75,West,273,1.0,-999.0,69,-99.99,,,0.00,weatherlink.com 1.10,2013-07-06 02:35:00,
2013-07-05 19:50:00,60.2,51.0,29.75,SW,228,3.0,-999.0,72,-99.99,,,0.00,weatherlink.com 1.10,2013-07-06 02:50:00,
2013-07-05 20:04:00,59.5,51.0,29.76,SSW,204,2.0,-999.0,74,-99.99,,,0.00,weatherlink.com 1.10,2013-07-06 03:04:00,
2013-07-05 20:20:00,58.9,51.0,29.76,WSW,253,0.0,-999.0,75,-99.99,,,0.00,weatherlink.com 1.10,2013-07-06 03:20:00,
2013-07-05 20:35:00,58.4,51.0,29.76,SE,130,2.0,-999.0,77,-99.99,,,0.00,weatherlink.com 1.10,2013-07-06 03:35:00,
2013-07-05 20:50:00,58.0,51.0,29.76,SE,144,0.0,-999.0,78,-99.99,,,0.00,weatherlink.com 1.10,2013-07-06 03:50:00,
2013-07-05 21:05:00,57.3,51.0,29.76,WSW,244,0.0,-999.0,79,-99.99,,,0.00,weatherlink.com 1.10,2013-07-06 04:05:00,
2013-07-05 21:21:00,57.0,51.0,29.77,SW,227,0.0,-999.0,80,-99.99,,,0.00,weatherlink.com 1.10,2013-07-06 04:21:00,
2013-07-05 21:36:00,56.9,51.0,29.77,SE,145,0.0,-999.0,81,-99.99,,,0.00,weatherlink.com 1.10,2013-07-06 04:36:00,
2013-07-05 21:50:00,56.9,52.0,29.77,WSW,239,2.0,-999.0,82,-99.99,,,0.00,weatherlink.com 1.10,2013-07-06 04:50:00,
2013-07-05 22:06:00,56.9,52.0,29.78,SSE,148,0.0,-999.0,82,-99.99,,,0.00,weatherlink.com 1.10,2013-07-06 05:06:00,
2013-07-05 22:20:00,56.7,51.0,29.78,West,268,2.0,-999.0,82,-99.99,,,0.00,weatherlink.com 1.10,2013-07-06 05:20:00,
2013-07-05 22:35:00,56.7,51.0,29.78,SSE,148,1.0,-999.0,82,-99.99,,,0.00,weatherlink.com 1.10,2013-07-06 05:35:00,
2013-07-05 22:51:00,56.7,51.0,29.78,SSW,192,0.0,-999.0,82,-99.99,,,0.00,weatherlink.com 1.10,2013-07-06 05:51:00,
2013-07-05 23:06:00,56.6,51.0,29.78,ESE,104,1.0,-999.0,82,-99.99,,,0.00,weatherlink.com 1.10,2013-07-06 06:06:00,
2013-07-05 23:21:00,56.6,51.0,29.78,SW,223,0.0,-999.0,82,-99.99,,,0.00,weatherlink.com 1.10,2013-07-06 06:21:00,
2013-07-05 23:36:00,56.5,51.0,29.78,East,95,1.0,-999.0,82,-99.99,,,0.00,weatherlink.com 1.10,2013-07-06 06:36:00,
2013-07-05 23:51:00,56.5,51.0,29.78,West,261,0.0,-999.0,82,-99.99,,,0.00,weatherlink.com 1.10,2013-07-06 06:51:00,